Weather in Tagbilaran

Philippines     9°38′47″N   123°52′18″E
temp.,
°C
wind,
m/s
gust,
m/s
humid.,
%
clouds,
%
prec.,
mm/h
press.,
hPa
HPBL,
m
10 may, mon
mon1023:00+28ne3579100 1.1 1009211
02:00+27ene3580100 1.3 1007250
05:00+27ene2279100 0.4 1008193
08:00+28e1177100 0.5 1010200
11:00+28wnw2278100 0.1 1009365
14:00+28ese2276100 2.1 1007240
17:00+28ne2376100 6.5 1007129
20:00+28ene3478100 8.6 1009122
11 may, tue
tue1123:00+28e1177100 2.0 101094
02:00+28sse1176100 3.2 1008135
05:00+27ene2278100 0.0 1008201
08:00+28ne2276100 0.0 1009260
11:00+29nnw4376100 0.0 1008319
14:00+29e3374100 0.4 1006566
17:00+29nnw0174100 1.8 1007180
20:00+28ne3478100 3.9 1009123
12 may, wed
wed1223:00+27ene5881100 0.9 1009331
02:00+27ne5784100 1.0 1007377
05:00+27ene468469 0.1 1008375
08:00+28ene457977 0.1 1009486
11:00+29nnw237590 0.4 1008228
14:00+29nnw23724 1.4 1006355
17:00+30nne45715 0.1 1006145
20:00+28ene45785 0.8 1008200
13 may, thu
thu1323:00+28ne3579100 0.7 1008221
02:00+27ene4581100 0.8 1006278
05:00+27ne3581100 0.0 1007304
08:00+28ne357899 0.0 1009498
11:00+29n4471100 0.1 1008342
14:00+29nne447050 0.4 1005554
17:00+30nne3472100 0.3 1005265
20:00+28ne4679100 0.6 1007310
14 may, fri
fri1423:00+28ene357673 0.9 1007274
02:00+28ne5778100 1.4 1005503
05:00+27ne578315 2.1 1006408
08:00+27nne458122 4.1 1007387
11:00+29n3472100 1.1 1006383
14:00+29nne4473100 4.1 1004374
17:00+28nne5682100 4.5 1004312
20:00+28nne3479100 8.8 1006270